Location: site
(53.0000°N, 23.0500°E)
Time: 22:27:28
(UTC+01:00)

SAOCOM 1-A - Pass Details

Date: 17 January 2020
Orbit: 621 x 623 km, 97.9° (Epoch: 24 February)

Event Time Altitude Azimuth Distance (km) Brightness Sun altitude
Rises 03:54:14 0° 141° (SE) 2,897 ? -32.0°
Reaches altitude 10° 03:56:31 10° 134° (SE) 1,995 ? -31.6°
Enters shadow 03:59:37 34° 95° (E) 1,035 ? -31.2°
